Regional Weather Roundup
Issued by NWS

Home | Current Version | Previous Version | Graphics & Text | Print | Product List | Glossary On
Versions: 1 2 3 4 5 6 7 8 9 10 11 12 13 14 15 16 17 18 19 20 21 22 23 24 25 26 27 28 29 30 31 32 33 34 35 36 37 38 39 40 41 42 43 44 45 46 47 48 49 50
318
ASUS45 KBOI 140410
RWRID

IDAHO REGIONAL WEATHER ROUNDUP
NATIONAL WEATHER SERVICE BOISE ID
900 PM MST WED DEC 13 2017

NOTE: "FAIR" INDICATES FEW OR NO CLOUDS BELOW 12000 FEET
WITH NO SIGNIFICANT WEATHER AND/OR OBSTRUCTIONS TO VISIBILITY

IDZ012-014-140500-
SOUTHWEST IDAHO


CITY           SKY/WX    TMP DP  RH WIND       PRES   REMARKS
BOISE          CLOUDY    25  23  92 NW7       30.42R WCI  17
CALDWELL       NOT AVBL
MOUNTAIN HOME  CLOUDY    24  24 100 CALM      30.45R FOG
$$

IDZ016-017-140500-
SOUTHCENTRAL IDAHO


CITY           SKY/WX    TMP DP  RH WIND       PRES   REMARKS
BURLEY         CLOUDY    23  19  85 W5        30.38R WCI  17
JEROME         HAZE      25  19  78 CALM      30.41R VSB 1/2
TWIN FALLS     CLOUDY    22  20  92 W5        30.39R WCI  16
$$

IDZ019>023-140500-
SOUTHEAST IDAHO


CITY           SKY/WX    TMP DP  RH WIND       PRES   REMARKS
IDAHO FALLS    CLOUDY    23  21  92 SW5       30.35R FOG     WCI  17
POCATELLO      CLOUDY    23  20  88 S7        30.36R WCI  15
REXBURG        CLOUDY    25  22  88 SW3       30.33R
$$

IDZ006-010-011-018-031-032-140500-
CENTRAL IDAHO MOUNTAINS


CITY           SKY/WX    TMP DP  RH WIND       PRES   REMARKS
MCCALL         CLEAR     25  23  92 W6        30.31S WCI  18
HAILEY         CLEAR     21  19  93 E5        30.33R WCI  15
STANLEY          N/A     23  20  88 S5        30.35R WCI  17
SALMON         CLOUDY    19  16  88 SE3       30.45R
CHALLIS        MOCLDY    21  18  88 SW7       30.37R WCI  12
$$

IDZ002-004-006-007-026-140500-
NORTHERN IDAHO


CITY           SKY/WX    TMP DP  RH WIND       PRES   REMARKS
LEWISTON       CLOUDY    31  27  85 CALM      30.57R
LOWELL           N/A     32  31  96 CALM      30.57R
COEUR D`ALENE  CLOUDY    30  27  88 NW3       30.54R
MULLAN PASS    PTCLDY    24  21  88 S6        30.37R WCI  17
$$




USA.gov is the U.S. government's official web portal to all federal, state and local government web resources and services.